This demonstration page uses our WeatherBlox Daily Observations layout. Learn more.

Hourly Observations for September 1, 2015

Temp ( °F °C ) Dew Point ( °F °C ) Humidity (%) Winds ( mph kmh ) Pressure ( in mb ) Visibility ( mi km ) Precip ( " mm )
12:15 am 00:15 Clear 70 20.9 59 15 69 69 SSE 7 11 29.83 1010 10 16.0934 0 0
12:35 am 00:35 Clear 70 20.9 59 14.9 69 69 SSE 8 13 29.83 1010 10 16.0934 0 0
12:55 am 00:55 Clear 71 21.8 58 14.3 63 63 S 8 13 29.83 1010 10 16.0934 0 0
1:15 am 01:15 Clear 71 21.5 58 14.2 63 63 S 7 11 29.85 1011 10 16.0934 0 0
1:35 am 01:35 Clear 69 20.7 58 14.4 67 67 S 6 9 29.85 1011 10 16.0934 0 0
1:55 am 01:55 Clear 69 20.4 58 14.5 69 69 S 7 11 29.85 1011 10 16.0934 0 0
2:15 am 02:15 Clear 69 20.5 58 14.5 69 69 S 7 11 29.85 1011 10 16.0934 0 0
2:35 am 02:35 Clear 70 21.1 57 14 64 64 S 8 13 29.85 1011 10 16.0934 0 0
2:55 am 02:55 Clear 70 21 57 13.7 63 63 S 8 13 29.83 1010 10 16.0934 0 0
3:15 am 03:15 Clear 70 20.9 56 13.4 62 62 SSW 8 13 29.83 1010 10 16.0934 0 0
3:35 am 03:35 Clear with Nearby Thunderstorms 70 21 56 13.1 61 61 S 10 17 29.83 1010 10 16.0934 0 0
3:55 am 03:55 Clear with Nearby Thunderstorms 71 21.5 55 12.7 57 57 SSW 13 20 29.83 1010 10 16.0934 0 0
4:15 am 04:15 Clear 71 21.5 55 12.7 57 57 S 13 20 29.83 1010 10 16.0934 0 0
4:35 am 04:35 Clear with Thunderstorms 71 21.6 55 12.5 56 56 S 13 20 29.83 1010 10 16.0934 0 0
4:55 am 04:55 Clear with Nearby Thunderstorms 71 21.6 54 12.3 56 56 S 10 17 29.85 1011 10 16.0934 0 0
5:15 am 05:15 Clear 71 21.5 55 12.5 57 57 S 9 15 29.83 1010 10 16.0934 0 0
5:35 am 05:35 Clear 70 21.1 55 12.5 58 58 S 10 17 29.83 1010 10 16.0934 0 0
5:55 am 05:55 Clear 70 21 55 12.5 58 58 S 12 19 29.83 1010 10 16.0934 0 0
6:15 am 06:15 Partly Cloudy 70 21.1 55 12.5 58 58 S 9 15 29.83 1010 10 16.0934 0 0
6:35 am 06:35 Clear 69 20.8 55 12.7 60 60 S 9 15 29.83 1010 10 16.0934 0 0
6:55 am 06:55 Clear 70 21 55 12.6 59 59 SSE 8 13 29.83 1010 10 16.0934 0 0
7:15 am 07:15 Sunny 69 20.7 55 12.8 61 61 S 9 15 29.85 1011 10 16.0934 0 0
7:35 am 07:35 Sunny 69 20.5 55 13 62 62 S 6 9 29.85 1011 10 16.0934 0 0
7:55 am 07:55 Sunny 69 20.6 56 13.2 63 63 SSW 7 11 29.85 1011 10 16.0934 0 0
8:15 am 08:15 Sunny 69 20.5 57 13.9 66 66 SW 3 6 29.85 1011 10 16.0934 0 0
8:35 am 08:35 Sunny 70 21 57 13.8 64 64 SW 6 9 29.85 1011 10 16.0934 0 0
8:55 am 08:55 Sunny 70 21.1 57 13.7 63 63 SW 6 9 29.85 1011 10 16.0934 0 0
9:15 am 09:15 Sunny 72 22.1 57 14.1 61 61 SW 9 15 29.85 1011 10 16.0934 0 0
9:35 am 09:35 Sunny 74 23.3 58 14.3 57 57 SW 9 15 29.83 1010 10 16.0934 0 0
9:55 am 09:55 Sunny 76 24.2 58 14.6 55 55 SSW 13 20 29.83 1010 10 16.0934 0 0
10:15 am 10:15 Sunny 77 25.1 58 14.5 52 52 SSW 12 19 29.83 1010 10 16.0934 0 0
10:35 am 10:35 Sunny 77 25.1 57 14.1 51 51 SW 12 19 29.83 1010 10 16.0934 0 0
10:55 am 10:55 Sunny 78 25.8 58 14.4 49 49 SW 12 19 29.83 1010 10 16.0934 0 0
11:15 am 11:15 Sunny 80 26.4 58 14.7 49 49 SSW 13 20 29.85 1011 10 16.0934 0 0
11:35 am 11:35 Sunny 80 26.7 58 14.5 47 47 SW 8 13 29.8 1009 10 16.0934 0 0
11:55 am 11:55 Sunny 81 27.3 58 14.5 46 46 SSW 7 11 29.8 1009 10 16.0934 0 0
12:15 pm 12:15 Sunny 82 27.5 59 15.1 47 47 SSW 8 13 29.8 1009 10 16.0934 0 0
12:35 pm 12:35 Sunny 82 28 59 15.2 46 46 SSE 6 9 29.8 1009 10 16.0934 0 0
12:55 pm 12:55 Sunny 83 28.4 59 14.9 44 44 SSW 7 11 29.8 1009 10 16.0934 0 0
1:15 pm 13:15 Sunny 83 28.4 60 15.3 45 45 SSE 7 11 29.8 1009 10 16.0934 0 0
1:35 pm 13:35 Sunny 84 28.9 59 15.1 43 43 SSE 6 9 29.8 1009 10 16.0934 0 0
1:55 pm 13:55 Sunny 85 29.2 59 15 42 42 SSE 6 9 29.8 1009 10 16.0934 0 0
2:15 pm 14:15 Sunny 86 29.8 59 15.1 41 41 SE 7 11 29.77 1008 10 16.0934 0 0
2:35 pm 14:35 Sunny 86 30 60 15.8 42 42 SSE 9 15 29.77 1008 10 16.0934 0 0
2:55 pm 14:55 Sunny 86 30.1 60 15.6 41 41 SE 10 17 29.74 1007 10 16.0934 0 0
3:15 pm 15:15 Sunny 86 30.2 60 15.3 40 40 S 9 15 29.74 1007 10 16.0934 0 0
3:35 pm 15:35 Sunny 87 30.8 59 15 38 38 SSE 9 15 29.74 1007 10 16.0934 0 0
3:55 pm 15:55 Sunny 87 30.6 58 14.4 37 37 SSW 6 9 29.74 1007 10 16.0934 0 0
4:15 pm 16:15 Sunny 87 30.8 58 14.3 37 37 SSE 6 9 29.74 1007 10 16.0934 0 0
4:35 pm 16:35 Sunny 88 30.9 57 14.1 36 36 S 5 7 29.74 1007 10 16.0934 0 0
4:55 pm 16:55 Sunny 88 31.3 58 14.6 36 36 SSE 7 11 29.74 1007 10 16.0934 0 0
5:15 pm 17:15 Sunny 88 31 59 14.8 37 37 SE 8 13 29.74 1007 10 16.0934 0 0
5:35 pm 17:35 Sunny 86 30 60 15.7 42 42 SSE 5 7 29.74 1007 10 16.0934 0 0
5:55 pm 17:55 Sunny 88 31.3 60 15.5 38 38 SE 9 15 29.74 1007 10 16.0934 0 0
6:15 pm 18:15 Sunny 88 31.1 60 15.4 39 39 SE 9 15 29.74 1007 10 16.0934 0 0
6:35 pm 18:35 Sunny 87 30.7 62 16.7 43 43 SE 7 11 29.74 1007 10 16.0934 0 0
6:55 pm 18:55 Sunny 87 30.5 63 17.2 45 45 ESE 8 13 29.71 1006 10 16.0934 0 0
7:15 pm 19:15 Sunny 86 29.8 62 16.5 45 45 ESE 5 7 29.71 1006 10 16.0934 0 0
7:35 pm 19:35 Sunny 84 28.9 63 17 49 49 ESE 6 9 29.74 1007 10 16.0934 0 0
7:55 pm 19:55 Sunny 81 27.2 64 17.8 57 57 ESE 5 7 29.74 1007 10 16.0934 0 0
8:15 pm 20:15 Clear 77 25.2 64 18 64 64 SE 6 9 29.77 1008 7 11.26538 0 0
8:35 pm 20:35 Clear 75 24 64 17.7 68 68 SE 6 9 29.77 1008 10 16.0934 0 0
8:55 pm 20:55 Clear 74 23.2 64 17.6 71 71 ESE 3 6 29.8 1009 10 16.0934 0 0
9:15 pm 21:15 Clear 74 23.1 64 18 73 73 ESE 3 6 29.8 1009 7 11.26538 0 0
9:35 pm 21:35 Clear 74 23.3 64 18 72 72 SE 9 15 29.8 1009 10 16.0934 0 0
9:55 pm 21:55 Clear 74 23.3 64 17.5 70 70 SE 7 11 29.8 1009 10 16.0934 0 0
10:15 pm 22:15 Clear 73 22.7 64 17.5 73 73 SE 5 7 29.8 1009 10 16.0934 0 0
10:35 pm 22:35 Clear 72 22.3 63 17.2 73 73 SSE 5 7 29.83 1010 10 16.0934 0 0
10:55 pm 22:55 Clear 73 22.9 62 16.6 68 68 SSE 3 6 29.8 1009 10 16.0934 0 0
11:15 pm 23:15 Clear 73 22.7 62 16.4 68 68 S 5 7 29.8 1009 10 16.0934 0 0
11:35 pm 23:35 Clear 71 21.6 61 16.1 71 71 SSE 7 11 29.83 1010 10 16.0934 0 0
11:55 pm 23:55 Clear 71 21.6 61 16.3 72 72 SE 13 20 29.83 1010 10 16.0934 0 0

Powered by AerisWeather